Buffalo, NY

2:57 AM EST on January 24, 2018 (GMT -0500)
Buffalo Niagara International

Weather History for KBUF - May, 2013

Change the Weather History Date:

Monday, May 13, 2013

  Actual Average Record
Temperature  
Mean Temperature 40 °F 56 °F  
Max Temperature 46 °F 66 °F 85 °F (2004)
Min Temperature 34 °F 46 °F 30 °F (1895)
Degree Days  
Heating Degree Days 25 9  
Month to date heating degree days 66 147  
Since 1 July heating degree days 5924 6428  
Cooling Degree Days 0 1  
Month to date cooling degree days 13 1  
Year to date cooling degree days 13 4  
Moisture  
Dew Point 31 °F    
Average Humidity 70    
Maximum Humidity 82    
Minimum Humidity 57    
Precipitation  
Precipitation T in 0.11 in 1.94 in (1990)
Month to date precipitation 1.19 1.35  
Year to date precipitation 11.72 12.90  
Snow  
Snow T in 0.00 in T in (2013)
Month to date snowfall T 0.2  
Since 1 July snowfall 58.8 94.6  
Snow Depth 0.00 in    
Sea Level Pressure  
Sea Level Pressure 30.07 in    
Wind  
Wind Speed 14 mph (WSW)    
Max Wind Speed 24 mph    
Max Gust Speed 32 mph    
Visibility 10 miles    
Events Rain    
T = Trace of Precipitation, MM = Missing Value Source: NWS Daily Summary

Daily Weather History Graph

Daily Weather History Graph

Search for Another Location

Airport or City:

Trip Planner

Search our weather history database for the weather conditions in past years. The results will help you decide how hot, cold, wet, or windy it might be!

Date:

Astronomy

May. 13, 2013 Rise Set
Actual Time 5:53 AM EDT 8:29 PM EDT
Civil Twilight 5:21 AM EDT 9:01 PM EDT
Nautical Twilight 4:40 AM EDT 9:42 PM EDT
Astronomical Twilight 3:54 AM EDT 10:28 PM EDT
Moon 8:37 AM EDT (5/13) 11:37 PM EDT (5/13)
Length of Visible Light 15h 40m
Length of Day
14h 35m
Waxing Crescent, 12% of the Moon is Illuminated
May 13
Waxing Crescent
May 18
First Quarter
May 25
Full
May 31
Last Quarter
Jun 8
New

Hourly Weather History & Observations

Time (EDT) Temp. Windchill Dew Point Humidity Pressure Visibility Wind Dir Wind Speed Gust Speed Precip Events Conditions
12:54 AM 37.9 °F 28.9 °F 28.9 °F 70% 29.98 in 10.0 mi West 16.1 mph 27.6 mph N/A   Mostly Cloudy
1:54 AM 37.0 °F 27.4 °F 28.9 °F 73% 29.99 in 10.0 mi West 17.3 mph - N/A   Overcast
2:54 AM 36.0 °F 26.7 °F 28.0 °F 73% 29.98 in 10.0 mi West 15.0 mph 23.0 mph N/A   Mostly Cloudy
3:54 AM 35.1 °F 25.5 °F 28.0 °F 76% 29.99 in 10.0 mi West 15.0 mph - N/A   Scattered Clouds
4:54 AM 35.1 °F 26.9 °F 28.0 °F 76% 29.99 in 10.0 mi West 11.5 mph - N/A   Scattered Clouds
5:54 AM 34.0 °F 25.0 °F 28.0 °F 79% 30.01 in 10.0 mi West 12.7 mph - N/A   Scattered Clouds
6:54 AM 35.1 °F 25.5 °F 28.9 °F 78% 30.01 in 10.0 mi West 15.0 mph 19.6 mph N/A   Mostly Cloudy
7:54 AM 36.0 °F 28.0 °F 30.0 °F 79% 30.04 in 10.0 mi West 11.5 mph - N/A   Mostly Cloudy
8:54 AM 37.9 °F 30.9 °F 30.9 °F 76% 30.06 in 10.0 mi West 10.4 mph 19.6 mph N/A   Mostly Cloudy
9:54 AM 39.9 °F 33.4 °F 30.9 °F 70% 30.07 in 10.0 mi West 10.4 mph 17.3 mph N/A   Mostly Cloudy
10:48 AM 42.8 °F 35.8 °F 30.2 °F 61% 30.06 in 10.0 mi WSW 13.8 mph - N/A   Mostly Cloudy
10:54 AM 42.1 °F 34.9 °F 28.9 °F 60% 30.09 in 10.0 mi WSW 13.8 mph - N/A   Mostly Cloudy
11:34 AM 41.0 °F 32.8 °F 30.2 °F 65% 30.08 in 10.0 mi WSW 16.1 mph 23.0 mph 0.00 in Rain Small Hail
11:52 AM 42.8 °F 34.8 °F 30.2 °F 61% 30.08 in 10.0 mi WSW 17.3 mph 23.0 mph 0.00 in Rain Light Rain
11:54 AM 42.1 °F 34.2 °F 30.9 °F 65% 30.10 in 10.0 mi WSW 16.1 mph - 0.00 in Rain Light Rain
12:54 PM 42.1 °F 33.3 °F 30.0 °F 62% 30.11 in 10.0 mi SW 19.6 mph 25.3 mph 0.00 in Rain Light Rain
1:54 PM 41.0 °F 32.5 °F 30.0 °F 65% 30.12 in 10.0 mi WSW 17.3 mph 27.6 mph 0.00 in Rain Light Hail
2:24 PM 42.8 °F 35.8 °F 30.2 °F 61% 30.10 in 10.0 mi WSW 13.8 mph 25.3 mph 0.00 in   Mostly Cloudy
2:54 PM 42.8 °F 34.5 °F 30.2 °F 61% 30.10 in 10.0 mi WSW 18.4 mph 24.2 mph N/A Rain Light Rain
4:54 PM 42.1 °F 34.2 °F 33.1 °F 70% 30.12 in 10.0 mi SW 16.1 mph 26.5 mph 0.00 in Rain Light Rain
5:54 PM 44.1 °F 35.9 °F 33.1 °F 65% 30.11 in 10.0 mi SW 19.6 mph 29.9 mph 0.00 in   Mostly Cloudy
6:54 PM 44.1 °F 36.2 °F 33.1 °F 65% 30.12 in 10.0 mi WSW 18.4 mph 25.3 mph N/A   Scattered Clouds
7:54 PM 42.8 °F 34.8 °F 33.8 °F 70% 30.10 in 10.0 mi WSW 17.3 mph 21.9 mph N/A   Mostly Cloudy
8:54 PM 42.1 °F 35.7 °F 33.1 °F 70% 30.13 in 10.0 mi WSW 11.5 mph 21.9 mph N/A   Scattered Clouds
9:54 PM 41.0 °F 35.8 °F 33.1 °F 73% 30.15 in 10.0 mi WSW 8.1 mph - N/A   Partly Cloudy
10:54 PM 41.0 °F 36.4 °F 33.1 °F 73% 30.15 in 10.0 mi WSW 6.9 mph - N/A   Partly Cloudy
11:54 PM 39.9 °F 35.8 °F 33.1 °F 77% 30.15 in 10.0 mi WSW 5.8 mph - N/A   Partly Cloudy